星链-5257 (STARLINK-5257 )

导读

STARLINK-5257是美国SpaceX星链星座中的一颗低轨互联网卫星,于2023年1月19日发射升空,属于星链巨型星座组网的组成部分。星链计划旨在打造覆盖全球的近地轨道卫星互联网,可为全球地面基础设施缺失区域提供高速宽带服务。该卫星运行在约550公里高度的近地轨道,单星质量约300千克,通过猎鹰9号火箭批量发射入轨,助力实现全球无缝网络覆盖目标。

Basic Information
目录编号:
55316
目录名称:
STARLINK-5257
国际标识:
2023-010AZ
轨道中心:
EARTH
卫星名称:
星链-5257
卫星全名:
星链-5257 (STARLINK-5257 )
卫星状态:
在轨 (已飞行1332 天)
发射日期:
2023-01-19 UTC
国别 :
美国 (US)
星等 :
--
This satellite is enrolled in the Space Conjunction Data Service (SCDS) and the current flight risk assessment level is: No High Risk
Orbit Information
数据来源 国际轨道数据 AOE轨道数据
星历时间 2026-09-12T11:21:27+0800
11小时前
查看轨道信息
2026-09-10T23:00:00+0800
1天前
查看轨道信息
半长轴 6950.195km 6950.215km
偏心率 0.000403 0.0005136
轨道倾角 69.998° 70.004°
近地点辐角 270.275° 296.810°
升交点赤经 254.243° 258.078°
平近点角 89.794° 174.248°
近地点 569.257km 568.508km
远地点 574.859km 575.648km
周期 96.107分钟 96.107分钟
每日圈数 14.983296 14.983229
Detailed Information
固有亮度:
5
最大亮度:
2.5
卫星平台:
Starlink v1.5
覆盖范围:
全球
运营商:
太空探索技术公司
运营商所在国:
美国
制造商(研发单位):
太空探索技术公司
制造商所在国:
美国
使用方式:
暂无
Satellite Introduction
星链(Starlink)计划是由太空探索技术公司(SpaceX)提出的一个巨型低轨卫星互联网星座项目,计划在2019年至2024年间在太空搭建由约1.2万颗卫星组成的“星链”网络,其中1584颗将部署在地球上空550千米处的近地轨道,并从2020年开始工作。该卫星仍在工作。
2D Orbit Map
3D Orbit Map
Orbit Altitude Analysis Chart
Orbit Inclination Analysis Chart
Orbit Comprehensive Analysis Chart
View Comprehensive Chart
Miss Distance Evolution Trend with All Objects
Collision Probability Evolution Trend with All Objects